This is the latest recevied weather packets stored in our database for station/object KB5DPX. If no packets are shown the sender has not sent any weather packets the latest 1 day(s).
| Time | Temp. | Humidity | Pressure | Rain* | Wind** | Luminosity | Snow |
|---|---|---|---|---|---|---|---|
| 1777999059 | 7.78° C | 65% | 1006.4 hPa | 0 mm | 5.36 m/s, 290° | 939 W/m² | - |
| 1777998745 | 7.78° C | 67% | 1006.4 hPa | 0 mm | 5.36 m/s, 295° | 933 W/m² | - |
| 1777998468 | 7.78° C | 65% | 1006.3 hPa | 0 mm | 5.36 m/s, 296° | 926 W/m² | - |
| 1777998154 | 7.78° C | 67% | 1006.4 hPa | 0 mm | 4.47 m/s, 289° | 921 W/m² | - |
| 1777997858 | 7.78° C | 68% | 1006.4 hPa | 0 mm | 4.02 m/s, 298° | 914 W/m² | - |
| 1777997544 | 7.22° C | 67% | 1006.4 hPa | 0 mm | 5.81 m/s, 271° | 912 W/m² | - |
| 1777997258 | 7.22° C | 66% | 1006.4 hPa | 0 mm | 4.02 m/s, 300° | 905 W/m² | - |
| 1777996944 | 7.22° C | 68% | 1006.4 hPa | 0 mm | 4.47 m/s, 298° | 900 W/m² | - |
| 1777996651 | 7.22° C | 69% | 1006.4 hPa | 0 mm | 4.47 m/s, 302° | 893 W/m² | - |
| 1777996366 | 7.22° C | 71% | 1006.5 hPa | 0 mm | 4.47 m/s, 266° | 886 W/m² | - |
| 1777996045 | 7.22° C | 70% | 1006.5 hPa | 0 mm | 4.92 m/s, 269° | 881 W/m² | - |
| 1777995757 | 6.67° C | 72% | 1006.5 hPa | 0 mm | 4.02 m/s, 288° | 874 W/m² | - |
| 1777995464 | 6.67° C | 74% | 1006.5 hPa | 0 mm | 2.24 m/s, 300° | 861 W/m² | - |
| 1777995169 | 6.67° C | 75% | 1006.5 hPa | 0 mm | 3.58 m/s, 294° | 853 W/m² | - |
| 1777994847 | 6.67° C | 76% | 1006.5 hPa | 0 mm | 3.13 m/s, 296° | 851 W/m² | - |
| 1777994560 | 6.67° C | 77% | 1006.5 hPa | 0 mm | 3.58 m/s, 290° | 842 W/m² | - |
| 1777994245 | 6.11° C | 77% | 1006.5 hPa | 0 mm | 4.47 m/s, 304° | 828 W/m² | - |
| 1777993960 | 6.11° C | 77% | 1006.5 hPa | 0 mm | 4.02 m/s, 294° | 817 W/m² | - |
| 1777993642 | 6.11° C | 77% | 1006.4 hPa | 0 mm | 3.58 m/s, 284° | 805 W/m² | - |
| 1777993357 | 6.11° C | 78% | 1006.2 hPa | 0 mm | 3.58 m/s, 298° | 795 W/m² | - |
| 1777993054 | 6.11° C | 78% | 1006.2 hPa | 0 mm | 3.58 m/s, 289° | 784 W/m² | - |
| 1777992762 | 6.11° C | 78% | 1006.1 hPa | 0 mm | 3.58 m/s, 286° | 780 W/m² | - |
| 1777992446 | 6.11° C | 76% | 1006.1 hPa | 0 mm | 4.02 m/s, 294° | 766 W/m² | - |
| 1777992161 | 6.11° C | 75% | 1006.1 hPa | 0 mm | 3.58 m/s, 281° | 752 W/m² | - |
| 1777991847 | 6.11° C | 75% | 1005.9 hPa | 0 mm | 3.58 m/s, 291° | 740 W/m² | - |
* Rain latest hour (hover to see other rain measurements)
** Current wind speed in m/s (hover to see current wind gust speed)